Location: Unspecified
(0.0000°N, 0.0000°E)
Time: 11:52:01
(UTC+02:00)

DELTA 2 R/B (1) - Visible Passes

Search period start: 30 August 2015 00:00
Search period end: 09 September 2015 00:00
Orbit: 791 x 803 km, 39.6° (Epoch: 29 August)

Date Brightness Start Highest point End Pass type
(mag) Time Alt. Az. Time Alt. Az. Time Alt. Az.
30 Aug 4.0 06:34:04 40° SW 06:34:17 40° SW 06:39:29 10° SSE visible
31 Aug 4.9 06:05:59 28° SSE 06:05:59 28° SSE 06:08:52 10° SSE visible
01 Sep 6.0 05:37:44 12° SSE 05:37:44 12° SSE 05:38:13 10° SSE visible
